FW6766 Weather Reports


Display with metric or nautical units.
time (UTC)temp
F
wind
direction
speed
MPH
gust
MPH
rain 1hr
in
rain 24hr
in
rain mn
in
humidity
%
barometer
mb
20260901161517 89 203 1.0 4.0 0.00 0.00 0.00 57 1022.5
20260901160517 88 0 1.0 5.0 0.00 0.00 0.00 60 1022.7
20260901155517 87 23 2.0 5.0 0.00 0.00 0.00 60 1022.8
20260901154517 87 0 1.0 4.0 0.00 0.00 0.00 64 1023.0
20260901153538 86 293 1.0 3.0 0.00 0.00 0.00 68 1023.0
20260901152517 84 0.0 2.0 0.00 0.00 0.00 69 1023.0
20260901151517 83 338 1.0 3.0 0.00 0.00 0.00 73 1022.9
20260901150537 82 45 1.0 4.0 0.00 0.00 0.00 75 1022.9
20260901145517 81 225 1.0 2.0 0.00 0.00 0.00 77 1022.8
20260901144537 80 225 1.0 3.0 0.00 0.00 0.00 78 1022.7
20260901143517 79 180 1.0 3.0 0.00 0.00 0.00 79 1022.8
20260901142516 79 0.0 3.0 0.00 0.00 0.00 81 1022.9
20260901141516 78 23 1.0 4.0 0.00 0.00 0.00 83 1022.6
20260901140537 77 0.0 0.0 0.00 0.00 0.00 85 1022.6
20260901135517 77 0.0 0.0 0.00 0.00 0.00 88 1022.4
20260901134537 76 0.0 0.0 0.00 0.00 0.00 90 1022.2
20260901133517 75 0.0 0.0 0.00 0.00 0.00 91 1022.1
20260901132517 74 0.0 0.0 0.00 0.00 0.00 94 1022.3
20260901131517 74 0.0 0.0 0.00 0.00 0.00 94 1022.2
20260901130517 73 0.0 0.0 0.00 0.00 0.00 95 1022.2
20260901125516 72 0.0 0.0 0.00 0.00 0.00 96 1022.3
20260901124517 72 0.0 0.0 0.00 0.00 0.00 96 1022.3
20260901123516 71 0.0 0.0 0.00 0.00 0.00 96 1022.1
20260901122516 71 0.0 0.0 0.00 0.00 0.00 96 1022.3
20260901121517 71 0.0 0.0 0.00 0.00 0.00 96 1022.2
20260901120516 70 0.0 0.0 0.00 0.00 0.00 96 1022.0
20260901115516 70 0.0 0.0 0.00 0.00 0.00 95 1021.8
20260901114516 70 0.0 0.0 0.00 0.00 0.00 95 1021.6
20260901113536 70 0.0 0.0 0.00 0.00 0.00 94 1021.6
20260901112516 70 0.0 0.0 0.00 0.00 0.00 94 1021.7
20260901111516 70 0.0 0.0 0.00 0.00 0.00 94 1021.6
20260901110516 70 0.0 0.0 0.00 0.00 0.00 94 1021.5
20260901105537 70 0.0 0.0 0.00 0.00 0.00 94 1021.4
20260901104516 70 0.0 0.0 0.00 0.00 0.00 94 1021.4
20260901103516 70 0.0 0.0 0.00 0.00 0.00 94 1021.3
20260901102516 70 0.0 0.0 0.00 0.00 0.00 94 1021.3
20260901101516 70 0.0 0.0 0.00 0.00 0.00 94 1021.3
20260901100516 70 0.0 0.0 0.00 0.00 0.00 94 1021.2
20260901095517 70 0.0 0.0 0.00 0.00 0.00 94 1021.1
20260901094516 70 0.0 0.0 0.00 0.00 0.00 94 1021.1
20260901093516 70 0.0 0.0 0.00 0.00 0.00 94 1021.0
20260901092516 70 0.0 0.0 0.00 0.00 0.00 93 1021.0
20260901091516 71 0.0 0.0 0.00 0.00 0.00 93 1021.0
20260901090516 71 0.0 0.0 0.00 0.00 0.00 93 1021.0
20260901085516 71 0.0 0.0 0.00 0.00 0.00 93 1020.9
20260901084516 71 0.0 0.0 0.00 0.00 0.00 93 1020.9
20260901083516 71 0.0 0.0 0.00 0.00 0.00 93 1021.0
20260901082516 71 0.0 0.0 0.00 0.00 0.00 93 1021.2
20260901081516 71 0.0 0.0 0.00 0.00 0.00 93 1021.1
20260901080515 71 0.0 0.0 0.00 0.00 0.00 93 1021.2
20260901075515 71 0.0 0.0 0.00 0.00 0.00 93 1021.0
20260901074516 71 0.0 0.0 0.00 0.00 0.00 93 1021.0
20260901073515 71 0.0 0.0 0.00 0.00 0.00 93 1021.0
20260901072515 71 0.0 0.0 0.00 0.00 0.00 92 1021.1
20260901071515 72 0.0 0.0 0.00 0.00 0.00 92 1021.1
20260901070515 72 0.0 0.0 0.00 0.00 0.00 92 1021.1
20260901065515 72 0.0 0.0 0.00 0.00 0.00 92 1021.2
20260901064516 72 0.0 0.0 0.00 0.00 0.00 91 1021.3
20260901063516 72 0.0 0.0 0.00 0.00 0.00 91 1021.3
20260901062515 72 0.0 0.0 0.00 0.00 0.00 91 1021.3
20260901061515 72 0.0 0.0 0.00 0.00 0.00 91 1021.4
20260901060517 72 0.0 0.0 0.00 0.00 0.00 90 1021.3
20260901055517 72 0.0 0.0 0.00 0.00 0.00 90 1021.3
20260901054517 72 0.0 0.0 0.00 0.00 0.00 90 1021.4
20260901053557 72 0.0 0.0 0.00 0.00 0.00 90 1021.5
20260901052537 72 0.0 0.0 0.00 0.00 0.00 90 1021.6
20260901051538 72 0.0 0.0 0.00 0.00 0.00 90 1021.5
20260901050517 72 0.0 0.0 0.00 0.00 0.00 90 1021.6
20260901045537 72 0.0 0.0 0.00 0.00 0.00 90 1021.5
20260901044517 72 0.0 0.0 0.00 0.00 0.00 90 1021.4
20260901043517 72 0.0 0.0 0.00 0.00 0.00 89 1021.3
20260901041538 73 0.0 0.0 0.00 0.00 0.00 88 1021.3
20260901040517 73 0.0 0.0 0.00 0.00 0.00 88 1021.2
20260901035517 73 0.0 0.0 0.00 0.00 0.00 87 1021.1
20260901034517 73 0.0 0.0 0.00 0.00 0.00 86 1021.1
20260901033537 73 0.0 0.0 0.00 0.00 0.00 86 1021.1
20260901032517 74 0.0 0.0 0.00 0.00 0.00 86 1021.2
20260901031517 74 0.0 0.0 0.00 0.00 0.00 86 1021.2
20260901030518 74 0.0 0.0 0.00 0.00 0.00 86 1021.2
20260901025517 74 0.0 0.0 0.00 0.00 0.00 85 1021.2
20260901024517 75 0.0 0.0 0.00 0.00 0.00 85 1021.2
20260901023517 75 0.0 0.0 0.00 0.00 0.00 84 1021.0
20260901022517 75 0.0 0.0 0.00 0.00 0.00 82 1021.0
20260901021517 75 0.0 0.0 0.00 0.00 0.00 81 1021.0
20260901020517 75 0.0 0.0 0.00 0.00 0.00 81 1020.8
20260901015517 76 0.0 0.0 0.00 0.00 0.00 80 1020.9
20260901014517 76 0.0 0.0 0.00 0.00 0.00 80 1020.9
20260901013517 76 0.0 0.0 0.00 0.00 0.00 79 1020.7
20260901012517 77 0.0 0.0 0.00 0.00 0.00 77 1020.5
20260901011517 77 0.0 0.0 0.00 0.00 0.00 76 1020.4
20260901010517 77 0.0 0.0 0.00 0.00 0.00 75 1020.2
20260901005517 78 0.0 0.0 0.00 0.00 0.00 75 1020.2
20260901004516 78 0.0 0.0 0.00 0.00 0.00 72 1020.1
20260901003517 79 0.0 0.0 0.00 0.00 0.00 72 1020.1
20260901002537 79 0.0 0.0 0.00 0.00 0.00 72 1020.0
20260901001517 80 0.0 0.0 0.00 0.00 0.00 71 1020.2
20260901000617 80 0.0 0.0 0.00 0.00 0.00 70 1020.1
20260831235516 81 0.0 0.0 0.00 0.00 0.00 69 1020.1
20260831234517 82 0.0 0.0 0.00 0.00 0.00 67 1019.8
20260831233516 82 0.0 0.0 0.00 0.00 0.00 65 1019.9
20260831232516 83 0.0 0.0 0.00 0.00 0.00 64 1020.0
20260831231516 83 0.0 0.0 0.00 0.00 0.00 62 1019.9
20260831230516 84 0.0 0.0 0.00 0.00 0.00 62 1020.2
20260831225536 85 0.0 0.0 0.00 0.00 0.00 64 1020.3
20260831224516 86 0.0 0.0 0.00 0.00 0.00 60 1020.3
20260831223517 87 0.0 0.0 0.00 0.00 0.00 59 1020.4
20260831222516 88 0.0 0.0 0.00 0.00 0.00 58 1020.4
20260831220516 89 0.0 0.0 0.00 0.00 0.00 57 1020.6
20260831215516 89 0.0 0.0 0.00 0.00 0.00 53 1020.7
20260831214516 89 0.0 0.0 0.00 0.00 0.00 57 1020.7
20260831213536 89 0.0 0.0 0.00 0.00 0.00 59 1020.7
20260831212517 88 0.0 2.0 0.00 0.00 0.00 54 1020.7
20260831211516 89 0.0 0.0 0.00 0.00 0.00 59 1020.8
20260831210516 90 0.0 3.0 0.00 0.00 0.00 51 1020.9
20260831205516 90 68 1.0 3.0 0.00 0.00 0.00 51 1020.9
20260831204516 90 0.0 0.0 0.00 0.00 0.00 51 1021.1
20260831203516 90 0.0 0.0 0.00 0.00 0.00 52 1021.1
20260831202516 91 0 1.0 4.0 0.00 0.00 0.00 49 1021.2
20260831201537 92 0.0 1.0 0.00 0.00 0.00 51 1021.5
20260831200516 93 0.0 2.0 0.00 0.00 0.00 49 1021.5
20260831195516 92 0.0 2.0 0.00 0.00 0.00 53 1021.5
20260831194516 92 0 1.0 3.0 0.00 0.00 0.00 49 1021.6
20260831193516 91 0.0 0.0 0.00 0.00 0.00 51 1021.7
20260831192517 91 0.0 2.0 0.00 0.00 0.00 51 1021.7
20260831191516 91 0.0 2.0 0.00 0.00 0.00 53 1021.8
20260831190516 92 0 1.0 4.0 0.00 0.00 0.00 54 1021.9
20260831185516 92 180 1.0 4.0 0.00 0.00 0.00 54 1022.1
20260831184516 91 180 1.0 5.0 0.00 0.00 0.00 54 1022.3
20260831183535 90 0.0 2.0 0.00 0.00 0.00 57 1022.3
20260831182516 89 0.0 0.0 0.00 0.00 0.00 58 1022.2
20260831181515 88 0.0 0.0 0.00 0.00 0.00 63 1022.4
20260831180515 89 0.0 0.0 0.00 0.00 0.00 58 1022.4
20260831175538 90 0.0 1.0 0.00 0.00 0.00 57 1022.5
20260831174518 90 113 1.0 2.0 0.00 0.00 0.00 55 1022.6
20260831173517 89 293 1.0 2.0 0.00 0.00 0.00 58 1022.6
20260831172517 88 0.0 2.0 0.00 0.00 0.00 61 1022.7
20260831171518 89 45 1.0 3.0 0.00 0.00 0.00 59 1022.9
20260831170518 88 0 1.0 3.0 0.00 0.00 0.00 62 1023.0
20260831165518 87 338 1.0 4.0 0.00 0.00 0.00 61 1023.1
20260831164517 87 0.0 0.0 0.00 0.00 0.00 63 1023.3
20260831163517 86 0.0 0.0 0.00 0.00 0.00 67 1023.4
20260831162558 85 0.0 0.0 0.00 0.00 0.00 67 1023.5